Flag for Germany Weather past 2 weeks in Kerpen, North Rhine-Westphalia, Germany

Now
46 °F

Partly cloudy.


Feels Like: 40 °F
Forecast: 47 / 54 °F
Wind: 15 mph from Southwest

Location: Noervenich

Current Time: Dec 21, 2014 at 7:08:37 PM

Latest Report: Dec 21, 2014 at 6:20 PM


Visibility: N/A

Pressure: 30.27 "Hg

Humidity: 82%

Dew point: 41 °F

Location of KerpenLocation

Historic Weather in Kerpen — Graph

°F

Kerpen temperature yesterday

Maximum temperature yesterday: 45 °F (at 12:20 PM)
Minimum temperature yesterday: 39 °F (at 5:20 AM)
Average temperature yesterday: 42 °F

Past Weeks' High & Low Weather Summary

 TemperatureHumidityPressure
High55 °F (Dec 18, 3:20 PM)100% (Dec 6, 9:20 PM)30.42 "Hg (Dec 6, 9:20 PM)
Low32 °F (Dec 14, 4:20 AM)61% (Dec 7, 1:20 PM)29.45 "Hg (Dec 12, 2:04 PM)
Average42 °F85%29.98 "Hg
* Reported Dec 6 5:20 PM — Dec 21 5:20 PM, Kerpen, Weather by CustomWeather, © 2014

Note: Actual official high and low records may vary slightly from our data, if they occured in-between our weather recording intervals... More about our weather records

Advertising

Kerpen weather history for previous 24 hours

 ConditionsComfort  
Time TempWeatherWind HumidityBarometerVisibility
5:20 PM
Dec 21
46 °FPartly cloudy.13 mph82%30.27 "HgN/A
4:20 PM46 °FBroken clouds.13 mph76%30.30 "HgN/A
3:20 PM46 °FBroken clouds.12 mph76%30.33 "HgN/A
2:20 PM46 °FBroken clouds.10 mph76%30.33 "HgN/A
1:20 PM46 °FPartly sunny.5 mph71%30.36 "HgN/A
12:20 PM46 °FPartly sunny.7 mph71%30.36 "HgN/A
11:20 AM45 °FPartly sunny.9 mph76%30.39 "HgN/A
10:20 AM45 °FBroken clouds.12 mph76%30.42 "HgN/A
9:20 AM43 °FPartly sunny.7 mph81%30.39 "HgN/A
8:20 AM41 °FPartly cloudy.6 mph87%30.39 "HgN/A
7:20 AM41 °FPassing clouds.8 mph87%30.39 "HgN/A
6:20 AM39 °FPassing clouds.8 mph93%30.42 "HgN/A
5:20 AM41 °FPassing clouds.9 mph87%30.39 "HgN/A
4:20 AM43 °FPartly cloudy.9 mph87%30.39 "HgN/A
3:20 AM43 °FPassing clouds.8 mph87%30.42 "HgN/A
2:20 AM43 °FPassing clouds.9 mph87%30.39 "HgN/A
1:20 AM41 °FPassing clouds.7 mph87%30.36 "HgN/A
12:20 AM43 °FSprinkles. Partly cloudy.8 mph87%30.36 "HgN/A
11:20 PM
Dec 20
43 °FPassing clouds.13 mph87%30.33 "HgN/A
10:20 PM43 °FPassing clouds.14 mph87%30.30 "HgN/A
9:20 PM41 °FPassing clouds.12 mph93%30.30 "HgN/A
8:20 PM43 °FSprinkles. Partly cloudy.10 mph87%30.27 "HgN/A
7:20 PM45 °FRain showers. Partly cloudy.14 mph81%30.21 "HgN/A
Weather by CustomWeather, © 2014

See weather overviewHow to use our weather pages